Station PRYC1 - 9415020 - Point Reyes, CA Image indicating link to RSS feed of recent meteorological observations for station PRYC1


Conditions at PRYC1 as of
(7:30 pm PDT on 06/23/2024)
0230 GMT on 06/24/2024:
     

Click on the graph icon in the table below to see a time series plot of the last five days of that observation.

5-day plot - Atmospheric Pressure Atmospheric Pressure (PRES):29.89 in
NOS Water Level Observation Network Water Level
Previous observations
TIME
(PDT)
5-day plot - Wind Direction
WDIR
 
5-day plot - Wind Speed
WSPD
kts
5-day plot - Wind Gust
GST
kts
5-day plot - Wave Height
WVHT
ft
5-day plot - Dominant Wave Period
DPD
sec
5-day plot - Average Wave Period
APD
sec
5-day plot - Mean Wave Direction
MWD
 
5-day plot - Atmospheric Pressure
PRES
in
5-day plot - Pressure Tendency
PTDY
in
5-day plot - Air Temperature
ATMP
°F
5-day plot - Water Temperature
WTMP
°F
5-day plot - Dew Point
DEWP
°F
5-day plot - Salinity
SAL
psu
5-day plot - Visibility
VIS
nmi
5-day plot - Tide (above MLLW)
TIDE
ft
2024-06-23 07:24 pm-------29.89-------
2024-06-23 07:18 pm-------29.89-------
2024-06-23 07:12 pm-------29.89-------
2024-06-23 07:06 pm-------29.89-------
2024-06-23 07:00 pm-------29.89-0.02------
2024-06-23 06:54 pm-------29.89-------
2024-06-23 06:48 pm-------29.89-------
2024-06-23 06:42 pm-------29.89-------
2024-06-23 06:36 pm-------29.89-------
2024-06-23 06:30 pm-------29.89-------
2024-06-23 06:24 pm-------29.89-------
2024-06-23 06:18 pm-------29.89-------
2024-06-23 06:12 pm-------29.89-------
2024-06-23 06:06 pm-------29.89-------
2024-06-23 06:00 pm-------29.89-0.03------
2024-06-23 05:54 pm-------29.89-------
2024-06-23 05:48 pm-------29.89-------
2024-06-23 05:42 pm-------29.90-------
2024-06-23 05:36 pm-------29.89-------
2024-06-23 05:30 pm-------29.89-------
2024-06-23 05:24 pm-------29.90-------
2024-06-23 05:18 pm-------29.90-------
2024-06-23 05:12 pm-------29.90-------
2024-06-23 05:06 pm-------29.90-------
2024-06-23 05:00 pm-------29.90-0.03------
2024-06-23 04:54 pm-------29.91-------
2024-06-23 04:48 pm-------29.91-------
2024-06-23 04:42 pm-------29.91-------
2024-06-23 04:36 pm-------29.91-------
2024-06-23 04:30 pm-------29.91-------
2024-06-23 04:24 pm-------29.91-------
2024-06-23 04:18 pm-------29.91-------
2024-06-23 04:12 pm-------29.91-------
2024-06-23 04:06 pm-------29.91-------
2024-06-23 04:00 pm-------29.91-0.02------
2024-06-23 03:54 pm-------29.91-------
2024-06-23 03:48 pm-------29.91-------
2024-06-23 03:42 pm-------29.92-------
2024-06-23 03:36 pm-------29.92-------
2024-06-23 03:30 pm-------29.92-------
2024-06-23 03:24 pm-------29.92-------
2024-06-23 03:18 pm-------29.92-------
2024-06-23 03:12 pm-------29.92-------
2024-06-23 03:06 pm-------29.92-------
2024-06-23 03:00 pm-------29.92-0.02------
2024-06-23 02:54 pm-------29.92-------
2024-06-23 02:48 pm-------29.92-------
2024-06-23 02:42 pm-------29.92-------
2024-06-23 02:36 pm-------29.92-------
2024-06-23 02:30 pm-------29.93-------
2024-06-23 02:24 pm-------29.92-------
2024-06-23 02:18 pm-------29.93-------
2024-06-23 02:12 pm-------29.93-------
2024-06-23 02:06 pm-------29.93-------
2024-06-23 02:00 pm-------29.93-0.01------
2024-06-23 01:54 pm-------29.93-------
2024-06-23 01:48 pm-------29.93-------
2024-06-23 01:42 pm-------29.93-------
2024-06-23 01:36 pm-------29.93-------
2024-06-23 01:30 pm-------29.93-------
2024-06-23 01:24 pm-------29.93-------
2024-06-23 01:18 pm-------29.93-------
2024-06-23 01:12 pm-------29.93-------
2024-06-23 01:06 pm-------29.93-------
2024-06-23 01:00 pm-------29.93+0.00------
2024-06-23 12:54 pm-------29.93-------
2024-06-23 12:48 pm-------29.93-------
2024-06-23 12:42 pm-------29.93-------
2024-06-23 12:36 pm-------29.94-------
2024-06-23 12:30 pm-------29.94-------
2024-06-23 12:24 pm-------29.94-------
2024-06-23 12:18 pm-------29.94-------
2024-06-23 12:12 pm-------29.94-------
2024-06-23 12:06 pm-------29.94-------
2024-06-23 12:00 pm-------29.94+0.02------
2024-06-23 11:54 am-------29.94-------
2024-06-23 11:48 am-------29.94-------
2024-06-23 11:42 am-------29.94-------
2024-06-23 11:36 am-------29.94-------
2024-06-23 11:30 am-------29.94-------
2024-06-23 11:24 am-------29.94-------
2024-06-23 11:18 am-------29.94-------
2024-06-23 11:12 am-------29.94-------
2024-06-23 11:06 am-------29.94-------
2024-06-23 11:00 am-------29.94+0.04------
2024-06-23 10:54 am-------29.94-------
2024-06-23 10:48 am-------29.94-------
2024-06-23 10:42 am-------29.94-------
2024-06-23 10:36 am-------29.93-------
2024-06-23 10:30 am-------29.93-------
2024-06-23 10:24 am-------29.93-------
2024-06-23 10:18 am-------29.93-------
2024-06-23 10:12 am-------29.93-------
2024-06-23 10:06 am-------29.93-------
2024-06-23 10:00 am-------29.93+0.05------
2024-06-23 09:54 am-------29.93-------
2024-06-23 09:48 am-------29.93-------
2024-06-23 09:42 am-------29.93-------
2024-06-23 09:36 am-------29.93-------
2024-06-23 09:30 am-------29.93-------
2024-06-23 09:24 am-------29.93-------
2024-06-23 09:18 am-------29.92-------
2024-06-23 09:12 am-------29.92-------
2024-06-23 09:06 am-------29.92-------
2024-06-23 09:00 am-------29.92+0.05------
2024-06-23 08:54 am-------29.92-------
2024-06-23 08:48 am-------29.92-------
2024-06-23 08:42 am-------29.92-------
2024-06-23 08:36 am-------29.91-------
2024-06-23 08:30 am-------29.91-------
2024-06-23 08:24 am-------29.91-------
2024-06-23 08:18 am-------29.91-------
2024-06-23 08:12 am-------29.91-------
2024-06-23 08:06 am-------29.90-------
2024-06-23 08:00 am-------29.90+0.04------
2024-06-23 07:54 am-------29.90-------
2024-06-23 07:48 am-------29.90-------
2024-06-23 07:42 am-------29.89-------
2024-06-23 07:36 am-------29.89-------
2024-06-23 07:30 am-------29.89-------
2024-06-23 07:24 am-------29.89-------
2024-06-23 07:18 am-------29.88-------
2024-06-23 07:12 am-------29.88-------
2024-06-23 07:06 am-------29.88-------
2024-06-23 07:00 am-------29.88+0.02------
2024-06-23 06:54 am-------29.88-------
2024-06-23 06:48 am-------29.88-------
2024-06-23 06:42 am-------29.88-------
2024-06-23 06:36 am-------29.88-------
2024-06-23 06:30 am-------29.88-------
2024-06-23 06:24 am-------29.88-------
2024-06-23 06:18 am-------29.87-------
2024-06-23 06:12 am-------29.87-------
2024-06-23 06:06 am-------29.87-------
2024-06-23 06:00 am-------29.87+0.01------
2024-06-23 05:54 am-------29.87-------
2024-06-23 05:48 am-------29.87-------
2024-06-23 05:42 am-------29.87-------
2024-06-23 05:36 am-------29.87-------
2024-06-23 05:30 am-------29.87-------
2024-06-23 05:24 am-------29.87-------
2024-06-23 05:18 am-------29.86-------
2024-06-23 05:12 am-------29.86-------
2024-06-23 05:06 am-------29.86-------
2024-06-23 05:00 am-------29.86+0.00------
2024-06-23 04:54 am-------29.86-------
2024-06-23 04:48 am-------29.86-------
2024-06-23 04:42 am-------29.86-------
2024-06-23 04:36 am-------29.86-------
2024-06-23 04:30 am-------29.86-------
2024-06-23 04:24 am-------29.86-------
2024-06-23 04:18 am-------29.86-------
2024-06-23 04:12 am-------29.86-------
2024-06-23 04:06 am-------29.86-------
2024-06-23 04:00 am-------29.86+0.00------
2024-06-23 03:54 am-------29.86-------
2024-06-23 03:48 am-------29.86-------
2024-06-23 03:42 am-------29.86-------
2024-06-23 03:36 am-------29.86-------
2024-06-23 03:30 am-------29.86-------
2024-06-23 03:24 am-------29.86-------
2024-06-23 03:18 am-------29.86-------
2024-06-23 03:12 am-------29.86-------
2024-06-23 03:06 am-------29.86-------
2024-06-23 03:00 am-------29.86+0.00------
2024-06-23 02:54 am-------29.86-------
2024-06-23 02:48 am-------29.85-------
2024-06-23 02:42 am-------29.85-------
2024-06-23 02:36 am-------29.85-------
2024-06-23 02:30 am-------29.85-------
2024-06-23 02:24 am-------29.85-------
2024-06-23 02:18 am-------29.86-------
2024-06-23 02:12 am-------29.86-------
2024-06-23 02:06 am-------29.86-------
2024-06-23 02:00 am-------29.86+0.00------
2024-06-23 01:54 am-------29.86-------
2024-06-23 01:48 am-------29.85-------
2024-06-23 01:42 am-------29.86-------
2024-06-23 01:36 am-------29.86-------
2024-06-23 01:30 am-------29.86-------
2024-06-23 01:24 am-------29.86-------
2024-06-23 01:18 am-------29.86-------
2024-06-23 01:12 am-------29.86-------
2024-06-23 01:06 am-------29.86-------
2024-06-23 01:00 am-------29.86+0.00------
2024-06-23 12:54 am-------29.86-------
2024-06-23 12:48 am-------29.86-------
2024-06-23 12:42 am-------29.86-------
2024-06-23 12:36 am-------29.86-------
2024-06-23 12:30 am-------29.86-------
2024-06-23 12:24 am-------29.86-------
2024-06-23 12:18 am-------29.86-------
2024-06-23 12:12 am-------29.86-------
2024-06-23 12:06 am-------29.86-------
2024-06-23 12:00 am-------29.86+0.01------
2024-06-22 11:54 pm-------29.86-------
2024-06-22 11:48 pm-------29.86-------
2024-06-22 11:42 pm-------29.86-------
2024-06-22 11:36 pm-------29.86-------
2024-06-22 11:30 pm-------29.86-------
2024-06-22 11:24 pm-------29.85-------
2024-06-22 11:18 pm-------29.85-------
2024-06-22 11:12 pm-------29.85-------
2024-06-22 11:06 pm-------29.85-------
2024-06-22 11:00 pm-------29.86+0.02------
2024-06-22 10:54 pm-------29.85-------
2024-06-22 10:48 pm-------29.85-------
2024-06-22 10:42 pm-------29.85-------
2024-06-22 10:36 pm-------29.86-------
2024-06-22 10:30 pm-------29.86-------
2024-06-22 10:24 pm-------29.86-------
2024-06-22 10:18 pm-------29.86-------
2024-06-22 10:12 pm-------29.86-------
2024-06-22 10:06 pm-------29.85-------
2024-06-22 10:00 pm-------29.85+0.02------
2024-06-22 09:54 pm-------29.85-------
2024-06-22 09:48 pm-------29.85-------
2024-06-22 09:42 pm-------29.85-------
2024-06-22 09:36 pm-------29.85-------
2024-06-22 09:30 pm-------29.85-------
2024-06-22 09:24 pm-------29.85-------
2024-06-22 09:18 pm-------29.85-------
2024-06-22 09:12 pm-------29.85-------
2024-06-22 09:06 pm-------29.84-------
2024-06-22 09:00 pm-------29.84+0.01------
2024-06-22 08:54 pm-------29.84-------
2024-06-22 08:48 pm-------29.84-------
2024-06-22 08:42 pm-------29.84-------
2024-06-22 08:36 pm-------29.84-------
2024-06-22 08:30 pm-------29.84-------
2024-06-22 08:24 pm-------29.84-------
2024-06-22 08:18 pm-------29.84-------
2024-06-22 08:12 pm-------29.84-------
2024-06-22 08:06 pm-------29.84-------
2024-06-22 08:00 pm-------29.84+0.00------
2024-06-22 07:54 pm-------29.84-------